Location: Sortland
(68.7020°N, 15.4240°E)
Time: 17:41:42
(UTC+01:00)

Envisat - Pass Details

Date: 27 October 2019
Orbit: 764 x 766 km, 98.1° (Epoch: 21 November)

Event Time Altitude Azimuth Distance (km) Brightness Sun altitude
Rises 04:26:47 0° 14° (NNE) 3,251 6.6 -18.6°
Reaches altitude 10° 04:31:43 10° 57° (ENE) 2,318 6.5 -18.2°
Maximum altitude 04:32:27 10° 65° (ENE) 2,297 6.7 -18.1°
Drops below altitude 10° 04:33:11 10° 73° (ENE) 2,316 6.8 -18.0°
Sets 04:38:05 0° 115° (ESE) 3,236 7.1 -17.6°
